This is the latest recevied weather packets stored in our database for station/object KB9ZGZ. If no packets are shown the sender has not sent any weather packets the latest 10 day(s).
| Time | Temp. | Humidity | Pressure | Rain* | Wind** | Luminosity | Snow |
|---|---|---|---|---|---|---|---|
| 1777554931 | 8.89° C | 82% | 1013.6 hPa | 0.25 mm | - | - | - |
| 1777554023 | 7.78° C | 88% | 1013.5 hPa | 0.25 mm | - | - | - |
| 1777553118 | 6.67° C | 92% | 1013.5 hPa | 0.25 mm | - | - | - |
| 1777552236 | 5.56° C | 94% | 1013.4 hPa | 0.25 mm | - | - | - |
| 1777551317 | 5° C | 94% | 1013.1 hPa | 0.25 mm | - | - | - |
| 1777550420 | 4.44° C | 94% | 1013.1 hPa | 0.25 mm | - | - | - |
| 1777549513 | 4.44° C | 93% | 1012.9 hPa | 0.25 mm | - | - | - |
| 1777548614 | 3.89° C | 92% | 1013 hPa | 0.25 mm | - | - | - |
| 1777547716 | 3.33° C | 91% | 1013 hPa | 0.25 mm | - | - | - |
| 1777546811 | 3.89° C | 91% | 1012.8 hPa | 0.25 mm | - | - | - |
| 1777545908 | 3.89° C | 91% | 1012.9 hPa | 0.25 mm | - | - | - |
| 1777545016 | 4.44° C | 91% | 1013.1 hPa | 0.25 mm | - | - | - |
| 1777544106 | 3.89° C | 91% | 1013 hPa | 0.25 mm | - | - | - |
| 1777543204 | 3.89° C | 90% | 1012.9 hPa | 0.25 mm | - | - | - |
| 1777542360 | 4.44° C | 90% | 1013 hPa | 0.25 mm | - | - | - |
| 1777541458 | 3.89° C | 89% | 1013 hPa | 0.25 mm | - | - | - |
| 1777540557 | 3.89° C | 89% | 1013 hPa | 0.25 mm | - | - | - |
| 1777539655 | 3.89° C | 88% | 1013 hPa | 0.25 mm | - | - | - |
| 1777538764 | 4.44° C | 88% | 1013 hPa | 0.25 mm | - | - | - |
| 1777537865 | 4.44° C | 88% | 1012.9 hPa | 0.25 mm | - | - | - |
| 1777536990 | 4.44° C | 88% | 1013.2 hPa | 0.25 mm | - | - | - |
| 1777536071 | 5° C | 88% | 1013.4 hPa | 0.25 mm | - | - | - |
| 1777535144 | 5° C | 87% | 1013.3 hPa | 0.25 mm | - | - | - |
| 1777534243 | 5° C | 86% | 1013.3 hPa | 0.25 mm | - | - | - |
| 1777533361 | 5.56° C | 86% | 1013.4 hPa | 0.25 mm | - | - | - |
* Rain since midnight (hover to see other rain measurements)
** Current wind speed in m/s (hover to see current wind gust speed)